User: anonymous   Login
Location: Chantarel
(45.1638°N, 1.7873°E)
Time: 00:34:32
(UTC+00:00)
Language:

CSL-04 Debris - Orbit

View from above orbital plane
View from above orbital plane
View from above satellite
View from above satellite

Ground track
Ground track

The orbit data is extracted from the following two-line orbital elements,

1 25733U 99025D   21138.55719289  .00000102  00000-0  73467-4 0  9990
2 25733  98.9111 173.9120 0016127  90.6197 269.6825 14.16460231137134
Epoch (UTC): 18 May 2021 13:22:21
Eccentricity: 0.0016127
inclination: 98.9111°
perigee height: 826 km
apogee height: 849 km
right ascension of ascending node: 173.9120°
argument of perigee: 90.6197°
revolutions per day: 14.16460231
mean anomaly at epoch: 269.6825°
orbit number at epoch: 13713

The dashed part of the orbit path shows where the satellite is in the earth's shadow,  

DLR